This is the latest recevied weather packets stored in our database for station/object EA7OC-10. If no packets are shown the sender has not sent any weather packets the latest 10 day(s).
| Time | Temp. | Humidity | Pressure | Rain* | Wind** | Luminosity | Snow |
|---|---|---|---|---|---|---|---|
| 1777500211 | 19.44° C | 39% | 1015.1 hPa | - | - | - | - |
| 1777499311 | 20° C | 39% | 1015 hPa | - | - | - | - |
| 1777498410 | 20° C | 39% | 1014.9 hPa | - | - | - | - |
| 1777497510 | 20.56° C | 39% | 1014.7 hPa | - | - | - | - |
| 1777496610 | 20.56° C | 39% | 1014.4 hPa | - | - | - | - |
| 1777495710 | 20.56° C | 40% | 1014.2 hPa | - | - | - | - |
| 1777494810 | 20.56° C | 39% | 1014 hPa | - | - | - | - |
| 1777493910 | 21.11° C | 39% | 1013.7 hPa | - | - | - | - |
| 1777493010 | 21.11° C | 39% | 1013.1 hPa | - | - | - | - |
| 1777492110 | 21.11° C | 39% | 1012.9 hPa | - | - | - | - |
| 1777491210 | 21.11° C | 39% | 1012.5 hPa | - | - | - | - |
| 1777490310 | 21.11° C | 39% | 1012.3 hPa | - | - | - | - |
| 1777489409 | 21.67° C | 39% | 1012.1 hPa | - | - | - | - |
| 1777488509 | 22.22° C | 38% | 1012.1 hPa | - | - | - | - |
| 1777487609 | 22.78° C | 38% | 1011.8 hPa | - | - | - | - |
| 1777486709 | 23.89° C | 38% | 1011.6 hPa | - | - | - | - |
| 1777485806 | 24.44° C | 39% | 1011.5 hPa | - | - | - | - |
| 1777484906 | 24.44° C | 39% | 1011.4 hPa | - | - | - | - |
| 1777484006 | 25° C | 40% | 1011.4 hPa | - | - | - | - |
| 1777483106 | 23.89° C | 39% | 1011.4 hPa | - | - | - | - |
| 1777482206 | 25° C | 38% | 1011.3 hPa | - | - | - | - |
| 1777481306 | 25° C | 39% | 1011.1 hPa | - | - | - | - |
| 1777480401 | 25° C | 39% | 1011.2 hPa | - | - | - | - |
| 1777479501 | 25° C | 39% | 1011.3 hPa | - | - | - | - |
| 1777478601 | 23.89° C | 40% | 1011.2 hPa | - | - | - | - |
* Rain since midnight (hover to see other rain measurements)
** Current wind speed in m/s (hover to see current wind gust speed)